Location: Bryńsk
(53.2000°N, 19.7833°E)
Time: 17:36:22
(UTC+01:00)

ISS - Visible Passes

Search period start: 16 January 2019 00:00
Search period end: 26 January 2019 00:00
Orbit: 404 x 407 km, 51.6° (Epoch: 17 January)

Date Brightness Start Highest point End Pass type
(mag) Time Alt. Az. Time Alt. Az. Time Alt. Az.
23 Jan -1.1 18:37:37 10° SSW 18:38:06 12° S 18:38:06 12° S visible
24 Jan -1.5 17:46:45 10° S 17:48:17 13° SE 17:48:29 13° SE visible
24 Jan -0.6 19:21:03 10° SW 19:21:11 11° SW 19:21:11 11° SW visible
25 Jan -2.2 18:29:23 10° SW 18:31:29 26° S 18:31:29 26° S visible
